Погода в Рыбинске

Погода в Рыбинске : погода сейчас, прогноз погоды и архив. Всё, что Вы хотите узнать о погоде в Рыбинске!

Хотите узнать прогноз погоды в Рыбинске? Тогда Вам сюда: Погода в Рыбинске

Поиск расширенной информации на нашем сайте:

Другие новости

Новости СМИ2

Главная страница сайта

Новости сайта

02.10.2013

Напоминаем, что на нашем новом сайте вы можете получить высокодетализированные прогнозы погоды по пунктам России, СНГ и мира (включающие важные для авиации метеовеличины, такие как направление и скорость ветра, видимость, явления погоды, количество и форма облачности, нижняя и верхняя граница облачности), а также ознакомиться с разнообразными материалами по авиационной метеорологии и подборкой полезных ссылок на эту тему.

Сайт Метеоцентр.Азия посвящён разработке технологий оптимизации авиаметеорологического обслуживания, включая проектирование и перспективное создание нескольких автоматизированных авиаметеорологических систем:
- система выпуска высокодетальных прогностических карт явлений погоды для нижнего воздушного пространства по России и ближнему зарубежью;
- система верификации прогнозов TAF (выпускаемых синоптиками официальных АМСГ РФ и ближнего зарубежья) и AUTOTAF (выпускаемых сайтом Метеоцентр.Азия) - выявление ошибок, онлайн-сопоставление с фактической погодой METAR, автоматическое внесение коррективов в прогнозы при резком отклонении фактической погоды от прогноза, подсчёт оправдываемости прогнозов по элементам и в целом;
- система обработки, анализа и отображения авиаметеорологической информации для применения провайдерами метеорологической информации.


Погода в Рыбинске - сегодня

Время (UTC), дата Ветер
(°,м/с) 
Видим.   Явления Облачность Т
(°С)
Тd
(°С)
f(%) Тe
(°С)
Pmin
(гПа)
dP
(гПа)
Po
(мм)
O2
(г/м3)
Тmin Tmax R s Состояние
почвы
12 21.01.17 310 (СЗ) 3{11}  20000 м    ясно 
-5.2 -8.9 75 -8  1008.1  1.5  746  307           
15 21.01.17 310 (СЗ) 4-11{11}  18000 м    ясно 
-6.2 -10.8 70 -10  1010.7  2.5  748  309           
18 21.01.17 300 (СЗ) 4{11}  11000 м    4/0 верхняя 
[Ci sp]
-7.7 -11.3 75 -11  1012.8  749  312           
21 21.01.17 290 (З) 4{11}  11000 м    3/0 верхняя 
[Ci sp]
-7.1 -11.8 69 -11  1013.6  0.8  750  311           
00 22.01.17 290 (З) 11000 м    ясно 
-7.5 -11.6 72 -10  1014.7  0.9  751  312           
03 22.01.17 300 (СЗ) 11000 м    4/4 2000 м средняя 
[Ac trans]
-7.9 -11.1 78 -11  1014.6  751  313  -8.2      33  равномерный
сухой снег
100% 
06 22.01.17 260 (З) 14000 м    ясно 
-8.1 -10.5 83 -11  1013.9  -0.7  750  313  -8.8         
09 22.01.17 270 (З) 13000 м    8/8 2000 м средняя 
[Ac trans]
-6.9 -10.3 77 -10  1012.6  -1.3  749  311           
12 22.01.17 270 (З) 8000 м  слаб. снег  10/10 2000 м 
[Ns]
-5.2 -7.6 83 -8  1010.8  -1.7  748  308           
15 22.01.17 290 (З) 10 км  {снег}  10/10 2000 м 
[Ns]
-4.8 -6.3 89 -6  1010.7  748  307    -4.6  0.4     
18 22.01.17 300 (СЗ) 15000 м  {снег}  ясно 
-6.1 -7.5 90 -9  1012  1.2  749  309           
21 22.01.17 300 (СЗ) 13000 м    ясно 
-7.5 -8.4 93 -10  1014  1.7  750  312           
00 23.01.17 310 (СЗ) 15000 м    8/8 300 м 
[Cu med, cong]
-6.2 -8.3 85 -6  1013.9  750  310           
03 23.01.17 290 (З) 15000 м    10/10 2000 м 
[Ns]
-6.5 -8.6 85 -6  1013.2  -0.6  750  310  -8      35  равномерный
сухой снег
100% 
06 23.01.17 160 (Ю) 14000 м    10/0 средняя 
[As op]
-5.8 -7.3 89 -5  1011.9  -1.3  749  309           
09 23.01.17 200 (Ю) 13000 м  в посл. час снег  10/0 средняя 
[As op]
-2.7 -4.6 87 -2  1009.5  -2.2  747  305           
12 23.01.17 тихо ()   9000 м  слаб. снег  10/0 средняя 
[As op]
-0.5 -1.8 91 -1  1006.4  -2.9  745  301           
15 23.01.17 270 (З) 10 км  {снег}  10/0 средняя 
[As op]
+0.7 -1.8 83 -2  1004.3  -1.9  743  299    +0.8  0.2     
18 23.01.17 260 (З) 8000 м  слаб. снег  10/0 средняя 
[As op]
-0.2 -1.6 90 -2  1003.1  -1.3  742  300           
21 23.01.17 260 (З) 6000 м  слаб. снег  10/0 средняя 
[As op]
-0.5 -1 96 -2  1001.8  -1.2  741  299           
00 24.01.17 260 (З) 7000 м  снег  10/10 300 м 
[Frnb|Ns]
-0.6 -1 97 -2  1000.5  -1.3  741  299           
03 24.01.17 270 (З) 10 км  {снег}  10/10 300 м 
[Sc]
-0.4 -1 96 -2  999.8  -0.7  740  299  -0.7    39  равномерный
мокрый или
старый снег
100% 
06 24.01.17 290 (З) 11000 м  {снег}  10/10 2000 м 
[Ns]
-0.4 -1.2 94 -1  1000.3  0.6  740  299           
09 24.01.17 330 (СЗ) 12000 м  {снег}  10/10 2000 м 
[Ns]
-2.3 -3.7 90 -4  1002.4  742  302           
12 24.01.17 000 (С) 11000 м  слаб. снег  10/10 2000 м 
[Ns]
-6.2 -8.6 83 -9  1006.2  3.6  745  308           
Время (UTC), дата Ветер
(°,м/с) 
Видим.   Явления Облачность Т
(°С)
Тd
(°С)
f(%) Тe
(°С)
Pmin
(гПа)
dP
(гПа)
Po
(мм)
O2
(г/м3)
Тmin Tmax R s Состояние
почвы

Для получения пояснительной информации подведите курсор к названию столбца.

ПОГОДА в Рыбинске - архив

Всё, что Вы хотите узнать о погоде в Рыбинске - удобно и подробно!

Выберите нужную дату (начиная с 1 января 2015* года) и нажмите кнопку "Найти".
Будут отображены архивные сводки погоды по пункту Рыбинск, начиная с указанной даты.


Отображать данные в формате CSV (для использования в таблицах Excel)


Внимание! Наш архив погоды предназначен исключительно для личного некоммерческого использования в познавательных целях. Если Вам необходимы официальные справки о состоянии погоды (для производственных, юридических, коммерческих и т.п. целей), обращайтесь в органы Росгидромета.

*Примечание: данная дата относится к архиву по метеостанциям СССР (Россия, СНГ, Балтия).
Архив по метеостанциям Зарубежной Европы и Азии (кроме Китая) хранится 10 дней, по другим регионам земного шара (Китай, Африка, Америка, Австралия, Океания) - 1 день.

Рыбинск - район местоположения метеостанции


Название, широта, долгота, высота метеостанции:
Рыбинск 58.1°ш. 38.7°д. 105 м над ур. моря [Российская Федерация]

Дополнительная информация

В oтличие oт бoльшинства пoгoдных сайтoв мы публикуем пoдрoбную метеoинфoрмацию в детальнoм прoфессиoнальнoм фoрмате.

Характеристики температуры и влажнoсти вoздуха измеряются на высoте 2 м в тени вдали oт зданий и деревьев.
Скoрoсть ветра измеряется на высoте 10 м (на урoвне рoста челoвека скoрoсть ветра ниже в 1.5-2 раза). Если метеoстанция нахoдится в гoрoде или в лесу, тo скoрoсть ветра занижена на 2-4 м/с пo сравнению с oткрытым местoм. Скoрoсть ветра над акватoриями крупных рек и oзёр, а также на вершинах хoлмoв на 2-5 м/с выше, чем в oбычных услoвиях.
Атмoсфернoе давление в разных тoчках местнoсти мoжет значительнo oтличаться oт давления на метеoстанции, в зависимoсти oт услoвий рельефа (при пoдъёме на 10 м давление пoнижается примернo на 1 мм рт.ст.).